Location: Newark
(35.5300°N, 14.3000°E)
Time: 09:51:35
(UTC+00:00)

Explorer 11/Cluster Stage 4 - Pass Details

Date: 18 November 2019
Orbit: 467 x 1259 km, 28.8° (Epoch: 15 December)

Event Time Altitude Azimuth Distance (km) Brightness Sun altitude
Rises 18:14:41 0° 224° (SW) 3,094 10.3 -28.4°
Reaches altitude 10° 18:17:15 10° 211° (SSW) 2,306 9.4 -28.9°
Enters shadow 18:20:16 23° 180° (S) 1,708 8.3 -29.5°
